Regional Weather Roundup
Issued by NWS

Home | Current Version | Previous Version | Text Only | Print | Product List | Glossary Off
Versions: 1 2 3 4 5 6 7 8 9 10 11 12 13 14 15 16 17 18 19 20 21 22 23 24 25 26 27 28 29 30 31 32 33 34 35 36 37 38 39 40 41 42 43 44 45 46 47 48 49 50

000
ASUS43 KOAX 010202
RWRNE

WEATHER ROUNDUP FOR NEBRASKA
NATIONAL WEATHER SERVICE OMAHA NE
800 PM CST SAT FEB 28 2015

NOTES: SATELLITE DATA IS BEING USED TO AUGMENT CLOUD COVER ABOVE
       12000 FEET.
       "FAIR" INDICATES FEW OR NO CLOUDS BELOW 12,000 FEET WITH NO
       SIGNIFICANT WEATHER AND/OR OBSTRUCTIONS TO VISIBILITY.

  * THESE STATIONS DO NOT REPORT WEATHER SUCH AS RAIN...SNOW OR FOG.

NEZ001>004-019>022-054>056-010300-
NEBRASKA PANHANDLE

CITY           SKY/WX    TMP DP  RH WIND       PRES   REMARKS
SCOTTSBLUFF    MOCLDY    24  11  57 E8        30.06R WCI  15
ALLIANCE       PTCLDY    22  10  60 E5        30.07R WCI  16
CHADRON        CLEAR     21  13  71 S6        30.11R WCI  13
KIMBALL        MOCLDY    21  16  78 CALM      29.99S
SIDNEY         PTCLDY    20  13  74 SE6       30.04S WCI  12
$$

NEZ057>060-069>072-079>082-010300-
SOUTHWEST NEBRASKA

CITY           SKY/WX    TMP DP  RH WIND       PRES   REMARKS
NORTH PLATTE   PTCLDY    19   9  65 S6        30.17R WCI  11
IMPERIAL         N/A     15   8  73 SE6       30.12R WCI   6
LEXINGTON      CLEAR     17  10  77 S6        30.21R WCI   8
MCCOOK         CLOUDY    25  13  60 S8        30.19R WCI  16
$$

NEZ005>010-023>029-035>040-094-010300-
NORTH CENTRAL NEBRASKA

CITY           SKY/WX    TMP DP  RH WIND       PRES   REMARKS
VALENTINE      CLEAR     25   7  46 N8        30.15R WCI  16
AINSWORTH      PTCLDY    25  10  52 CALM      30.15R
BROKEN BOW     CLEAR     21  10  62 S8        30.18R WCI  11
ORD            PTCLDY    20   9  62 S9        30.20R WCI   9
$$

NEZ041-046>049-061>064-073>077-083>087-010300-
SOUTH CENTRAL NEBRASKA

CITY           SKY/WX    TMP DP  RH WIND       PRES   REMARKS
GRAND ISLAND   CLEAR     17  11  77 S8        30.27R WCI   7
HASTINGS       CLOUDY    19  14  81 S7        30.27R WCI  10
HEBRON         CLOUDY    20  15  80 CALM      30.32S
KEARNEY *      MOCLDY    19  12  73 S12       30.24R WCI   7
$$

NEZ011>018-030>034-042>045-010300-
NORTHEAST NEBRASKA

CITY           SKY/WX    TMP DP  RH WIND       PRES   REMARKS
NORFOLK        CLEAR     20  13  74 S13       30.25S WCI   7
BLAIR          FLURRIES  23  19  83 S6        30.32S WCI  15
COLUMBUS *     PTCLDY    21   9  58 S9        30.30F WCI  11
$$

NEZ050>053-065>068-078-088>093-010300-
SOUTHEAST NEBRASKA

CITY           SKY/WX    TMP DP  RH WIND       PRES   REMARKS
LINCOLN        CLOUDY    22  15  75 S8        30.36R WCI  12
OMAHA EPPLEY   FLURRIES  23  17  78 S10       30.36S WCI  12
FALLS CITY     MOCLDY    20  16  84 SE3       30.37F
$$

NEZ044-045-051>053-067-010300-
OMAHA AREA

CITY           SKY/WX    TMP DP  RH WIND       PRES   REMARKS
OMAHA EPPLEY   FLURRIES  23  17  78 S10       30.36S WCI  12
BLAIR          FLURRIES  23  19  83 S6        30.32S WCI  15
OFFUTT AFB     FLURRIES  23  19  84 SE7       30.35S WCI  14
$$



USA.gov is the U.S. government's official web portal to all federal, state and local government web resources and services.